Vorticity
12 -0 5 11 6 4 -2 4 8 12 12 7 4 8 7 10 11 9 11 10 19 8 3 -1 14 12 10 3 5 4 6 7 5 -2 25 12 11 26 16 8 10 19 31
6 9 14 7 4 4 9 6 8 9 5 3 8 9 8 8 10 9 16 5 -1 15 12 12 8 11 -1 4 7 9 -5 10 0 13 23 33 18 8 5 24 67 54 44
11 9 2 2 5 7 2 6 11 11 9 11 11 9 10 9 8 13 4 6 1 -13 3 1 15 0 11 10 7 -3 1 6 19 16 21 10 5 36 74 47 30 13 9
6 16 1 -1 3 9 6 14 16 6 6 16 13 10 12 11 14 8 -5 -6 13 18 15 7 4 9 7 4 -3 4 5 13 17 17 11 7 54 85 23 23 -7 3 15
4 -6 -2 -2 10 9 10 12 10 14 15 14 12 15 13 19 11 -1 11 21 12 7 6 6 8 11 4 -1 4 6 9 11 21 11 2 61 69 22 11 15 17 8 19
5 3 12 2 10 12 11 22 22 25 8 3 5 1 14 5 2 15 14 11 8 10 6 11 7 2 1 5 11 8 12 18 6 7 44 73 27 12 0 1 10 8 24
9 12 11 8 14 23 18 -18 8 8 4 -1 3 6 4 4 13 9 7 6 7 6 13 8 -1 -1 12 7 5 -1 20 16 1 32 60 30 9 1 6 4 -0 8 13
16 12 5 13 13 -8 6 25 6 16 21 21 14 8 12 13 10 11 8 10 2 11 11 8 5 16 8 3 2 10 11 8 21 60 22 19 6 2 9 8 6 8 3
16 8 25 21 21 17 10 19 4 -4 -3 4 15 15 7 7 11 15 4 4 11 14 -5 6 16 6 9 4 10 11 12 12 62 21 13 22 37 38 22 12 14 18 5
-0 9 6 3 7 -3 -15 -11 19 15 -1 24 17 10 14 18 18 16 13 16 11 1 9 13 6 8 3 4 5 10 8 33 52 8 23 16 23 43 35 25 12 19 11
9 -1 14 25 17 7 -0 11 14 14 18 6 4 10 21 17 21 19 11 9 9 9 11 6 5 7 1 6 4 10 10 60 19 20 18 18 15 36 29 27 16 18 18
-1 -4 8 25 23 16 4 5 7 -0 17 16 16 11 18 20 16 10 8 5 6 6 10 4 5 4 7 11 7 11 32 49 7 21 22 15 14 15 43 24 18 37 19
7 -6 5 9 9 -7 -8 10 2 14 17 -9 10 18 25 17 13 11 7 8 12 11 2 5 4 7 -0 8 9 20 54 23 17 18 18 10 12 18 18 31 24 39 22
-10 -21 -31 -17 12 0 14 -5 7 2 15 18 13 2 10 18 11 7 8 10 11 4 5 6 6 1 5 4 13 43 35 12 17 21 17 12 13 9 17 22 25 32 21
-18 -7 -16 -25 -5 -11 31 2 5 14 16 -13 22 -3 -4 30 11 10 8 9 5 5 4 4 6 3 7 7 30 44 21 16 15 20 20 13 17 16 11 23 18 25 24
-3 9 -6 -6 -11 1 -1 12 14 14 30 36 -21 19 15 17 13 11 7 8 6 5 5 4 3 9 6 18 46 30 19 21 16 14 7 17 15 21 24 24 27 16 24
2 -7 -10 -6 -15 15 7 19 1 12 32 14 -17 20 28 17 12 9 10 7 6 5 1 6 10 7 11 32 44 12 19 21 16 9 10 12 18 20 27 36 37 19 28
-9 0 -7 -21 -4 38 21 11 12 35 7 -3 11 36 19 16 8 11 8 8 11 16 14 12 9 12 29 35 29 11 20 22 13 9 9 14 22 16 21 40 40 22 34
-27 -25 -14 13 47 34 28 21 -0 9 28 -1 38 14 17 10 11 5 2 -3 0 3 7 11 10 20 38 29 16 13 19 21 13 11 13 12 20 20 14 42 42 22 27
32 44 52 47 33 24 28 2 20 46 9 28 16 14 15 16 5 4 -4 5 5 9 12 12 19 31 33 26 11 15 20 18 18 17 11 12 16 24 10 42 30 27 17
55 36 53 55 36 35 -4 23 16 25 19 14 13 13 16 6 7 -4 1 2 2 2 7 12 31 39 19 22 10 18 18 11 19 22 10 19 11 26 17 31 24 21 26
11 33 6 -2 27 20 -8 7 30 14 12 10 15 17 7 4 -2 -1 2 2 2 2 10 14 30 37 12 23 11 19 20 16 18 22 15 20 13 25 24 20 28 13 11
47 -15 30 30 36 30 34 39 10 10 12 18 16 6 3 -0 0 -1 1 1 4 3 17 25 22 31 9 22 11 17 19 18 20 29 9 30 11 -5 14 35 26 13 13
-2 19 20 22 25 23 13 12 12 15 21 15 6 0 -1 0 -1 -1 -1 1 5 5 23 27 16 25 11 18 14 12 19 16 19 25 -2 30 1 -1 23 42 15 21 19
11 27 18 21 15 7 13 14 19 15 7 3 1 1 -3 3 1 -2 -2 1 8 12 23 25 9 22 18 9 19 13 17 16 18 18 7 28 12 12 28 31 29 35 33
20 18 19 12 11 14 19 17 12 3 3 1 3 -3 -1 5 0 -1 -2 1 11 17 22 25 6 15 22 6 12 16 12 18 17 17 13 26 6 10 30 20 11 17 24
Height
5639 5637 5635 5632 5627 5623 5619 5616 5613 5609 5606 5602 5598 5594 5590 5586 5583 5580 5576 5571 5566 5560 5553 5549 5540 5532 5526 5517 5510 5501 5488 5468 5450 5480 5468 5467 5441 5425 5415 5408 5401 5392 5388
5624 5622 5620 5617 5610 5607 5603 5599 5596 5592 5588 5583 5579 5575 5571 5566 5563 5560 5557 5552 5547 5540 5533 5525 5518 5512 5505 5496 5488 5479 5466 5450 5426 5412 5430 5420 5411 5390 5368 5358 5347 5341 5344
5610 5608 5605 5600 5594 5590 5587 5582 5578 5574 5569 5565 5560 5555 5552 5548 5544 5541 5538 5533 5526 5521 5513 5506 5498 5489 5481 5474 5465 5456 5443 5427 5407 5382 5380 5371 5367 5349 5326 5319 5317 5318 5319
5595 5591 5589 5585 5580 5574 5569 5565 5559 5555 5551 5546 5541 5537 5533 5529 5525 5522 5519 5512 5507 5500 5493 5485 5477 5468 5458 5451 5442 5431 5417 5401 5383 5363 5346 5334 5319 5309 5298 5298 5300 5295 5298
5579 5575 5572 5567 5561 5556 5550 5546 5540 5536 5531 5527 5523 5519 5515 5512 5507 5504 5499 5493 5487 5480 5472 5464 5455 5448 5439 5428 5418 5406 5387 5369 5351 5336 5323 5303 5289 5285 5280 5278 5282 5277 5275
5558 5556 5552 5549 5543 5538 5533 5528 5524 5520 5515 5511 5506 5502 5499 5495 5490 5484 5479 5474 5467 5460 5452 5444 5435 5427 5417 5405 5394 5380 5361 5340 5324 5305 5294 5281 5275 5269 5264 5262 5262 5258 5261
5540 5538 5536 5531 5525 5521 5517 5512 5507 5503 5498 5494 5489 5484 5479 5475 5470 5464 5458 5454 5447 5440 5433 5424 5416 5404 5393 5385 5375 5360 5341 5322 5298 5278 5270 5267 5265 5258 5250 5249 5245 5244 5245
5522 5520 5518 5514 5508 5503 5499 5494 5489 5484 5480 5475 5470 5465 5459 5455 5450 5445 5439 5434 5429 5422 5413 5405 5397 5386 5373 5361 5350 5337 5320 5301 5279 5261 5251 5251 5247 5241 5235 5231 5231 5231 5234
5504 5500 5498 5496 5492 5487 5484 5479 5474 5468 5464 5458 5453 5447 5441 5437 5432 5427 5422 5417 5412 5404 5394 5384 5375 5365 5354 5340 5323 5310 5296 5277 5257 5241 5232 5227 5221 5215 5212 5211 5215 5213 5220
5487 5482 5479 5477 5475 5471 5467 5463 5458 5452 5447 5442 5435 5431 5424 5418 5415 5409 5404 5399 5394 5387 5375 5364 5354 5344 5331 5316 5297 5284 5272 5255 5239 5229 5218 5209 5199 5193 5190 5190 5193 5197 5202
5468 5466 5463 5461 5456 5452 5450 5447 5441 5435 5430 5423 5419 5412 5407 5401 5396 5391 5385 5380 5374 5368 5360 5350 5338 5325 5314 5299 5280 5263 5245 5233 5224 5214 5204 5196 5187 5178 5176 5175 5176 5180 5188
5449 5447 5443 5441 5438 5436 5433 5429 5424 5419 5413 5407 5401 5395 5389 5384 5379 5374 5368 5362 5356 5349 5341 5332 5322 5311 5299 5283 5266 5247 5230 5216 5209 5202 5193 5185 5177 5169 5164 5163 5164 5168 5175
5428 5425 5422 5422 5423 5420 5416 5412 5406 5401 5396 5391 5386 5379 5373 5367 5362 5358 5352 5345 5338 5330 5323 5314 5305 5294 5280 5266 5248 5230 5215 5204 5198 5191 5183 5176 5168 5161 5156 5153 5154 5156 5163
5406 5404 5402 5402 5402 5400 5397 5392 5389 5384 5379 5374 5368 5361 5355 5350 5346 5340 5334 5328 5321 5314 5307 5298 5288 5275 5260 5247 5231 5213 5199 5192 5186 5180 5173 5166 5159 5153 5149 5145 5146 5148 5152
5384 5382 5380 5379 5379 5378 5377 5373 5369 5366 5362 5356 5352 5345 5341 5336 5331 5324 5318 5313 5306 5299 5291 5281 5270 5260 5248 5232 5215 5198 5188 5181 5174 5168 5161 5155 5149 5143 5139 5136 5138 5140 5145
5360 5361 5359 5356 5355 5355 5354 5353 5349 5345 5342 5339 5333 5330 5325 5320 5315 5309 5304 5299 5291 5283 5275 5265 5253 5244 5228 5212 5198 5187 5178 5171 5164 5158 5151 5144 5138 5133 5129 5126 5128 5131 5137
5333 5333 5335 5335 5335 5335 5331 5332 5329 5326 5323 5320 5316 5314 5309 5305 5300 5295 5291 5285 5278 5269 5260 5249 5240 5225 5211 5196 5183 5174 5167 5160 5155 5149 5141 5134 5128 5123 5118 5116 5116 5122 5130
5307 5307 5308 5310 5312 5312 5310 5310 5309 5307 5306 5304 5301 5298 5294 5290 5287 5284 5279 5272 5263 5253 5245 5238 5224 5206 5194 5183 5172 5164 5157 5151 5146 5139 5132 5125 5120 5116 5110 5108 5108 5114 5123
5281 5282 5283 5284 5285 5284 5286 5288 5289 5288 5287 5287 5284 5282 5281 5278 5276 5273 5268 5261 5252 5242 5232 5222 5207 5191 5180 5170 5163 5155 5148 5143 5138 5131 5125 5119 5115 5111 5107 5104 5103 5108 5117
5251 5253 5252 5254 5257 5260 5264 5269 5269 5268 5270 5269 5268 5268 5268 5268 5265 5261 5255 5247 5238 5230 5220 5207 5192 5180 5169 5162 5155 5148 5142 5137 5131 5125 5119 5115 5111 5108 5105 5103 5103 5107 5116
5220 5222 5226 5229 5234 5239 5245 5248 5250 5254 5255 5253 5254 5256 5257 5255 5254 5250 5242 5235 5227 5217 5206 5192 5180 5169 5161 5154 5148 5141 5135 5130 5125 5120 5115 5111 5109 5106 5104 5104 5106 5109 5116
5200 5205 5210 5216 5218 5223 5229 5233 5235 5238 5241 5242 5244 5245 5245 5244 5243 5237 5230 5222 5215 5206 5192 5181 5169 5160 5154 5148 5142 5135 5129 5125 5120 5115 5111 5108 5106 5104 5104 5105 5108 5111 5118
5186 5191 5194 5199 5202 5208 5214 5219 5222 5226 5228 5232 5234 5234 5233 5234 5231 5225 5218 5211 5203 5190 5180 5170 5161 5153 5147 5142 5135 5127 5123 5120 5116 5111 5109 5106 5104 5103 5103 5105 5108 5112 5118
5175 5180 5182 5185 5191 5197 5203 5208 5212 5215 5218 5221 5222 5222 5223 5223 5219 5212 5206 5199 5189 5179 5170 5161 5154 5147 5142 5137 5130 5123 5117 5114 5111 5108 5106 5104 5103 5102 5102 5102 5106 5111 5118
5165 5169 5172 5178 5185 5189 5195 5200 5203 5207 5210 5211 5211 5213 5214 5211 5206 5200 5194 5187 5179 5170 5161 5154 5147 5141 5136 5131 5125 5119 5114 5110 5108 5105 5104 5102 5101 5101 5100 5101 5106 5111 5119
5157 5160 5167 5174 5180 5185 5190 5193 5197 5199 5199 5200 5202 5203 5201 5198 5192 5187 5182 5176 5168 5160 5152 5146 5140 5136 5130 5126 5120 5115 5110 5107 5105 5102 5101 5100 5100 5100 5100 5101 5104 5110 5119